Location: Maignaut
(43.8886°N, 0.4051°E)
Time: 19:30:05
(UTC+00:00)

Helios 1A Rocket - Pass Details

Date: 17 January 2021
Orbit: 562 x 587 km, 98.3° (Epoch: 28 February)

Event Time Altitude Azimuth Distance (km) Brightness Sun altitude
Rises 18:24:24 0° 152° (SSE) 2,792 6.3 -16.9°
Reaches altitude 10° 18:26:35 10° 148° (SSE) 1,900 5.4 -17.2°
Maximum altitude 18:30:35 51° 72° (ENE) 739 3.0 -17.9°
Drops below altitude 10° 18:34:37 10° 356° (N) 1,921 5.5 -18.7°
Sets 18:36:50 0° 352° (N) 2,827 6.4 -19.1°
